Regional Weather Roundup
Issued by NWS Portland, ME

Current Version | Previous Version | Text Only | Print | Product List | Glossary Off
Versions: 1 2 3 4 5 6 7 8 9 10 11 12 13 14 15 16 17 18 19 20 21 22 23 24 25 26 27 28 29 30 31 32 33 34 35 36 37 38 39 40 41 42 43 44 45 46 47 48 49 50
000 ASUS41 KGYX 020505 RWRGYX WEATHER ROUNDUP FOR MAINE AND NEW HAMPSHIRE NATIONAL WEATHER SERVICE GRAY ME 100 AM EDT TUE SEP 02 2014 MEZ002-005-006-010-012-015-018-020-021-024-026-027-029-020600- MAINE CITY SKY/WX TMP DP RH WIND PRES REMARKS PORTLAND CLEAR 68 65 90 CALM 29.92S SANFORD CLEAR 63 59 88 CALM 29.94S BAR HARBOR CLOUDY 61 61 100 E5 29.94S WISCASSET MOCLDY 65 63 93 CALM 29.94S ROCKLAND CLOUDY 63 63 100 CALM 29.93S VSB<1/4 FRYEBURG CLEAR 62 61 96 CALM 29.94S LEWISTONAUBURN CLOUDY 63 61 94 CALM 29.93S VSB 1/2 AUGUSTA MOCLDY 67 66 97 S3 29.93S FOG WATERVILLE N/A 66 64 94 CALM 29.89S VSB 1/2 BANGOR HVY RAIN 69 67 93 SE6 29.93F FOG GREENVILLE N/A 65 65 100 CALM 29.95S MILLINOCKET CLOUDY 68 65 90 CALM 29.95F HOULTON CLOUDY 65 63 93 CALM 29.94F FOG PRESQUE ISLE CLOUDY 64 61 88 CALM 29.95S FRENCHVILLE LGT RAIN 62 61 96 SE10 29.95F CARIBOU CLOUDY 64 62 93 SE3 29.95S FOG $$ NHZ002-005-008-009-011-012-014-020600- NEW HAMPSHIRE CITY SKY/WX TMP DP RH WIND PRES REMARKS PORTSMOUTH CLEAR 69 68 96 SW2 29.92S ROCHESTER CLEAR 66 64 93 NW5 29.92F FOG NASHUA CLEAR 70 69 96 CALM 29.93F MANCHESTER PTCLDY 71 67 87 CALM 29.92S CONCORD MOCLDY 65 64 97 CALM 29.93F LACONIA CLEAR 64 61 88 CALM 29.93S PLYMOUTH MOCLDY 60 60 100 CALM 29.94F FOG BERLIN NOT AVBL WHITEFIELD CLEAR 58 56 93 CALM 29.95F JAFFREY CLEAR 66 64 93 CALM 29.98F LEBANON CLOUDY 65 62 90 CALM 29.93F FOG MT WASHINGTON PTCLDY 52 50 93 W21 N/A $$ VTZ005-007-008-020600- VERMONT CITY SKY/WX TMP DP RH WIND PRES REMARKS ST JOHNSBURY N/A 62 61 96 MISG 29.92S MONTPELIER MOCLDY 63 62 97 CALM 29.97F BURLINGTON CLEAR 75 64 68 S6 29.87F $$ MAZ007-012-024-CTZ003-RIZ002-NYZ038-NYZ072-020600- SOUTHERN NEW ENGLAND AND NY CITY SKY/WX TMP DP RH WIND PRES REMARKS BOSTON PTCLDY 77 71 82 SW12 29.93S WORCESTER CLEAR 71 69 93 W7 29.98F NANTUCKET FOG 70 69 97 SW10 29.96F VSB 1/4 PROVIDENCE MOCLDY 73 70 90 S5 29.96S HARTFORD MOCLDY 76 71 85 S6 29.92F ALBANY MOCLDY 77 70 79 S6 29.90F NEW YORK CITY CLEAR 81 73 76 S8 29.93S $$ ANZ081-ANZ082-ANZ150-NHZ014-MEZ023>029-020600- COASTAL MARINE OBSERVATIONS STATION/POSITION TIME TEMP WIND PRES WAVE AIR SEA DIR/SP/G HT/PER (UTC) (F) (DEG/KT/KT) (MB) (FT/S) MATINICUS ROCK 0400 140/ 5/ 5 1013.1F PORTLAND WX BUOY 0450 65 64 190/ 4/ 4 1013.1F 2/ 9 WELLS 0400 66 64 350/ 1/ 2 1012.3F ISLE OF SHOALS 0400 72 210/ 11/ 11 1012.8R JEFFREYS LEDGE 0421 67 N/A 2/ 7 CASHES LEDGE BUO 0450 68 66 1012.9R 3/ 6 $$ .............KEY.............. WCI - WIND CHILL TC - TEMPERATURE IN CELSIUS VSB - VISIBILITY IN MILES HX - HEAT INDEX FAIR- INDICATES FEW OR NO CLOUDS BELOW 12,000 FT, WITH NO SIGNIFICANT WEATHER AND/OR OBSTRUCTIONS TO VISIBILITY.

USA.gov is the U.S. government's official web portal to all federal, state and local government web resources and services.